Find Local Weather

World > North America > United States > California

San Francisco, California Regional Weather

Lat: 37.77N, Lon: 122.42W
Wx Zone: CAZ006
Feedback
Expires:201810210000;;490327
ASUS46 KSTO 202315
RWRCA 

NORTHERN AND CENTRAL CA REGIONAL WEATHER ROUNDUP
NATIONAL WEATHER SERVICE SACRAMENTO CA 
400 PM PDT SAT OCT 20 2018

NOTE: FAIR INDICATES FEW OR NO CLOUDS BELOW 12,000 FEET WITH NO
SIGNIFICANT WEATHER AND/OR OBSTRUCTIONS TO VISIBILITY.


CAZ006-505>513-210000-
BAY AREA
  
CITY           SKY/WX    TMP DP  RH WIND       PRES   REMARKS
SANTA ROSA     SUNNY     76  52  43 S9        29.92F                  
SAN RAFAEL     N/A       76  MM  MM MISG
NAPA           SUNNY     74  51  44 S7        29.93F                  
CONCORD        SUNNY     82  42  24 NW7       29.92F                  
OAKLAND CITY   N/A       68  MM  MM MISG
OAKLAND        MOSUNNY   65  54  67 W17       29.95S                  
SAN FRAN CITY  N/A       57  MM  78 MISG
SAN FRAN ARPT  MOSUNNY   61  51  70 W23       29.94F                  
LIVERMORE      SUNNY     86  42  21 W6        29.91F                  
HAYWARD        SUNNY     71  54  54 NW14      29.94S                  
REDWOOD CITY   N/A       70  MM  57 MISG
MOFFETT ARPT   SUNNY     71  54  54 N7        29.94F                  
SAN JOSE ARPT  SUNNY     77  48  35 N10       29.93F                  
$$

SKY/WX - Weather  TMP - Temperature  DP - Dew Point  RH - Relative Humidity
WIND - Wind Direction/Speed PRES - Barometric Pressure